Погода в Вожово

Россия / Орловская область     52°40′39″N   35°48′07″E
темп.,
°C
ветер,
м/с
пор.,
м/с
влажн.,
%
обл.,
%
осадки,
мм/ч
давл.,
гПа
погр.,
м
14 мая, пт
пт1400:00+8юв338844 0.0 101523
03:00+8юв348888 0.0 101663
06:00+10вюв4892100 0.0 1014186
09:00+14вюв5889100 0.4 1014326
12:00+19юв6975100 0.3 1012864
15:00+20ююв71175100 4.8 10101243
18:00+19ююв61282100 1.5 1009652
21:00+16ю5149178 2.1 1009329
15 мая, сб
сб1500:00+14ю339529 1.8 100945
03:00+13ю2293100 1.8 100917
06:00+13ю2392100 0.0 100959
09:00+18ю46806 0.2 1010449
12:00+20ю686625 0.6 10101373
15:00+20ююз710641 1.4 10101682
18:00+18ююз69775 1.2 1011832
21:00+13ююз49928 1.3 1012158
16 мая, вс
вс1600:00+12юз399466 0.0 1013179
03:00+11ююз349367 0.0 101367
06:00+11ююз369115 0.0 1014133
09:00+16ююз247733 0.0 1014348
12:00+20ююз35630 0.4 10141135
15:00+22ююз465681 0.7 10131880
18:00+20ююз2365100 0.0 101280
21:00+15ююз1179100 0.0 101311
17 мая, пн
пн1700:00+14всв2281100 0.0 101313
03:00+13всв348630 0.0 101356
06:00+14всв3989100 0.0 1011178
09:00+19в5977100 0.0 1010435
12:00+24вюв610625 0.0 1009873
15:00+25вюв71262100 0.0 10071508
18:00+22юв7136899 0.0 1006599
21:00+19юв5147736 0.0 1006365
18 мая, вт
вт1800:00+16юв41087100 0.0 1006205
03:00+15ю2395100 0.1 100657
06:00+15юз129899 2.3 100797
09:00+16зюз2395100 5.1 1007386
12:00+18зюз3383100 1.3 1009788
15:00+18з3478100 1.5 1009875
18:00+19юз248050 0.3 1009377
21:00+15ююз229029 0.6 101014